Year,Month,Day,Hour,Minute,Value (Times are PST for temperature in C)
2016,08,25,08,58,23.80
2016,08,25,08,59,23.90
2016,08,25,09,00,24.00
2016,08,25,09,01,24.10
2016,08,25,09,02,24.20
2016,08,25,09,03,24.30
2016,08,25,09,04,24.30
2016,08,25,09,05,24.30
2016,08,25,09,06,24.40
2016,08,25,09,07,24.50
2016,08,25,09,08,24.50
2016,08,25,09,09,24.60
2016,08,25,09,10,24.70
2016,08,25,09,11,24.70
2016,08,25,09,12,24.80
2016,08,25,09,13,24.80
2016,08,25,09,14,24.80
2016,08,25,09,15,24.90
2016,08,25,09,16,24.90
2016,08,25,09,17,24.90
2016,08,25,09,18,25.00
2016,08,25,09,19,25.10
2016,08,25,09,20,25.10
2016,08,25,09,21,25.20
2016,08,25,09,22,25.30
2016,08,25,09,23,25.30
2016,08,25,09,24,25.40
2016,08,25,09,25,25.40
2016,08,25,09,26,25.50
2016,08,25,09,27,25.60
2016,08,25,09,28,25.60
2016,08,25,09,29,25.70
2016,08,25,09,30,25.80
2016,08,25,09,31,25.90
2016,08,25,09,32,25.90
2016,08,25,09,33,25.90
2016,08,25,09,34,25.90
2016,08,25,09,35,25.90
2016,08,25,09,36,25.90
2016,08,25,09,37,25.90
2016,08,25,09,38,26.00
2016,08,25,09,39,26.00
2016,08,25,09,40,26.10
2016,08,25,09,41,26.10
2016,08,25,09,42,26.20
2016,08,25,09,43,26.20
2016,08,25,09,44,26.30
2016,08,25,09,45,26.30
2016,08,25,09,46,26.40
2016,08,25,09,47,26.50
2016,08,25,09,48,26.50
2016,08,25,09,49,26.60
2016,08,25,09,50,26.60
2016,08,25,09,51,26.60
2016,08,25,09,52,26.60
2016,08,25,09,53,26.70
2016,08,25,09,54,26.70
2016,08,25,09,55,26.80
2016,08,25,09,56,26.80
2016,08,25,09,57,26.80
2016,08,25,09,58,26.90
2016,08,25,09,59,26.90
2016,08,25,10,00,26.90
2016,08,25,10,01,26.90
2016,08,25,10,02,26.90
2016,08,25,10,03,26.90
2016,08,25,10,04,26.90
2016,08,25,10,05,26.90
2016,08,25,10,06,27.00
2016,08,25,10,07,27.00
2016,08,25,10,08,27.10
2016,08,25,10,09,27.10
2016,08,25,10,10,27.20
2016,08,25,10,11,27.20
2016,08,25,10,12,27.30
2016,08,25,10,13,27.40
2016,08,25,10,14,27.40
2016,08,25,10,15,27.40
2016,08,25,10,16,27.50
2016,08,25,10,17,27.50
2016,08,25,10,18,27.50
2016,08,25,10,19,27.50
2016,08,25,10,20,27.40
2016,08,25,10,21,27.30
2016,08,25,10,22,27.20
2016,08,25,10,23,27.10
2016,08,25,10,24,27.10
2016,08,25,10,25,27.20
2016,08,25,10,26,27.30
2016,08,25,10,27,27.30
2016,08,25,10,28,27.40
2016,08,25,10,29,27.50
2016,08,25,10,30,27.50
2016,08,25,10,31,27.40
2016,08,25,10,32,27.40
2016,08,25,10,33,27.30
2016,08,25,10,34,27.20
2016,08,25,10,35,27.20
2016,08,25,10,36,27.10
2016,08,25,10,37,27.10
2016,08,25,10,38,27.10
2016,08,25,10,39,27.10
2016,08,25,10,40,27.20
2016,08,25,10,41,27.20
2016,08,25,10,42,27.20
2016,08,25,10,43,27.20
2016,08,25,10,44,27.20
2016,08,25,10,45,27.20
2016,08,25,10,46,27.20
2016,08,25,10,47,27.30
2016,08,25,10,48,27.30
2016,08,25,10,49,27.30
2016,08,25,10,50,27.30
2016,08,25,10,51,27.40
2016,08,25,10,52,27.50
2016,08,25,10,53,27.60
2016,08,25,10,54,27.70
2016,08,25,10,55,27.70
2016,08,25,10,56,27.70
2016,08,25,10,57,27.60
2016,08,25,10,58,27.50
2016,08,25,10,59,27.40
2016,08,25,11,00,27.30
2016,08,25,11,01,27.30
2016,08,25,11,02,27.30
2016,08,25,11,03,27.30
2016,08,25,11,04,27.30
2016,08,25,11,05,27.30
2016,08,25,11,06,27.30
2016,08,25,11,07,27.20
2016,08,25,11,08,27.20
2016,08,25,11,09,27.20
2016,08,25,11,10,27.30
2016,08,25,11,11,27.30
2016,08,25,11,12,27.30
2016,08,25,11,13,27.30
2016,08,25,11,14,27.30
2016,08,25,11,15,27.30
2016,08,25,11,16,27.30
2016,08,25,11,17,27.30
2016,08,25,11,18,27.20
2016,08,25,11,19,27.30
2016,08,25,11,20,27.30
2016,08,25,11,21,27.40
2016,08,25,11,22,27.40
2016,08,25,11,23,27.40
2016,08,25,11,24,27.40
2016,08,25,11,25,27.40
2016,08,25,11,26,27.40
2016,08,25,11,27,27.40
2016,08,25,11,28,27.60
2016,08,25,12,07,28.00
2016,08,25,12,08,27.90
2016,08,25,12,09,27.80
2016,08,25,12,10,27.70
2016,08,25,12,11,27.60
2016,08,25,12,12,27.60
2016,08,25,12,13,27.60
2016,08,25,12,14,27.70
2016,08,25,12,15,27.80
2016,08,25,12,16,27.90
2016,08,25,12,17,28.10
2016,08,25,12,18,28.10
2016,08,25,12,19,28.20
2016,08,25,12,20,28.20
2016,08,25,12,21,28.20
2016,08,25,12,22,28.20
2016,08,25,12,23,28.20
2016,08,25,12,24,28.20
2016,08,25,12,25,28.30
2016,08,25,12,26,28.20
2016,08,25,12,27,28.20
2016,08,25,12,28,28.20
2016,08,25,12,29,28.20
2016,08,25,12,30,28.30
2016,08,25,12,31,28.40
2016,08,25,12,32,28.50
2016,08,25,12,33,28.60
2016,08,25,12,34,28.70
2016,08,25,12,35,28.80
2016,08,25,12,36,28.80
2016,08,25,12,37,28.90
2016,08,25,12,38,29.00
2016,08,25,12,39,29.10
2016,08,25,12,40,29.20
2016,08,25,12,41,29.20
2016,08,25,12,42,29.10
2016,08,25,12,43,29.00
2016,08,25,12,44,29.00
2016,08,25,12,45,29.00
2016,08,25,12,46,29.00
2016,08,25,12,47,29.00
2016,08,25,12,48,29.00
2016,08,25,12,49,29.10
2016,08,25,12,50,29.10
2016,08,25,12,51,29.10
2016,08,25,12,52,29.10
2016,08,25,12,53,29.20
2016,08,25,12,54,29.30
2016,08,25,12,55,29.40
2016,08,25,12,56,29.50
2016,08,25,12,57,29.60
2016,08,25,12,58,29.80
2016,08,25,12,59,29.90
2016,08,25,13,00,30.00
2016,08,25,13,01,30.00
2016,08,25,13,02,30.00
2016,08,25,13,03,30.10
2016,08,25,13,04,30.10
2016,08,25,13,05,30.10
2016,08,25,13,06,30.10
2016,08,25,13,07,30.10
2016,08,25,13,08,30.00
2016,08,25,13,09,29.90
2016,08,25,13,10,29.80
2016,08,25,13,11,29.70
2016,08,25,13,12,29.70
2016,08,25,13,13,29.70
2016,08,25,13,14,29.70
2016,08,25,13,15,29.70
2016,08,25,13,16,29.70
2016,08,25,13,17,29.80
2016,08,25,13,18,29.80
2016,08,25,13,19,29.80
2016,08,25,13,20,29.80
2016,08,25,13,21,29.80
2016,08,25,13,22,29.80
2016,08,25,13,23,29.80
2016,08,25,13,24,29.90
2016,08,25,13,25,29.90
2016,08,25,13,26,29.90
2016,08,25,13,27,29.90
2016,08,25,13,28,29.90
2016,08,25,13,29,29.90
2016,08,25,13,30,29.90
2016,08,25,13,31,29.90
2016,08,25,13,32,29.90
2016,08,25,13,33,29.90
2016,08,25,13,34,29.90
2016,08,25,13,35,29.90
2016,08,25,13,36,29.90
2016,08,25,13,37,29.80
2016,08,25,13,38,29.80
2016,08,25,13,39,29.80
2016,08,25,13,40,29.80
2016,08,25,13,41,29.80
2016,08,25,13,42,29.80
2016,08,25,13,43,29.80
2016,08,25,13,44,29.60
2016,08,25,13,45,29.50
2016,08,25,13,46,29.30
2016,08,25,13,47,29.20
2016,08,25,13,48,29.10
2016,08,25,13,49,29.00
2016,08,25,13,50,28.90
2016,08,25,13,51,28.80
2016,08,25,13,52,28.70
2016,08,25,13,53,28.60
2016,08,25,13,54,28.60
2016,08,25,13,55,28.60
2016,08,25,13,56,28.70
2016,08,25,13,57,28.70
2016,08,25,13,58,28.70
2016,08,25,13,59,28.70
2016,08,25,14,00,28.70
2016,08,25,14,01,28.70
2016,08,25,14,02,28.60
2016,08,25,14,03,28.60
2016,08,25,14,04,28.70
2016,08,25,14,05,28.80
2016,08,25,14,06,28.80
2016,08,25,14,07,28.70
2016,08,25,14,08,28.70
2016,08,25,14,09,28.60
2016,08,25,14,10,28.60
2016,08,25,14,11,28.60
2016,08,25,14,12,28.60
2016,08,25,14,13,28.70
2016,08,25,14,14,28.70
2016,08,25,14,15,28.70
2016,08,25,14,16,28.70
2016,08,25,14,17,28.70
2016,08,25,14,18,28.80
2016,08,25,14,19,28.80
2016,08,25,14,20,28.80
2016,08,25,14,21,28.70
2016,08,25,14,22,28.60
2016,08,25,14,23,28.60
2016,08,25,14,24,28.60
2016,08,25,14,25,28.60
2016,08,25,14,26,28.60
2016,08,25,14,27,28.50
2016,08,25,14,28,28.50
2016,08,25,14,29,28.50
2016,08,25,14,30,28.40
2016,08,25,14,31,28.40
2016,08,25,14,32,28.40
2016,08,25,14,33,28.40
2016,08,25,14,34,28.30
2016,08,25,14,35,28.40
2016,08,25,14,36,28.50
2016,08,25,14,37,28.60
2016,08,25,14,38,28.50
2016,08,25,14,39,28.40
2016,08,25,14,40,28.40
2016,08,25,14,41,28.40
2016,08,25,14,42,28.40
2016,08,25,14,43,28.40
2016,08,25,14,44,28.40
2016,08,25,14,45,28.40
2016,08,25,14,46,28.40
2016,08,25,14,47,28.50
2016,08,25,14,48,28.50
2016,08,25,14,49,28.50
2016,08,25,14,50,28.50
2016,08,25,14,51,28.40
2016,08,25,14,52,28.40
2016,08,25,14,53,28.40
2016,08,25,14,54,28.40
2016,08,25,14,55,28.40
2016,08,25,14,56,28.40
2016,08,25,14,57,28.50
2016,08,25,14,58,28.60
2016,08,25,14,59,28.70
2016,08,25,15,00,28.70
2016,08,25,15,01,28.70
2016,08,25,15,02,28.70
2016,08,25,15,03,28.70
2016,08,25,15,04,28.80
2016,08,25,15,05,28.90
2016,08,25,15,06,29.00
2016,08,25,15,07,29.00
2016,08,25,15,08,29.10
2016,08,25,15,09,29.00
2016,08,25,15,10,29.00
2016,08,25,15,11,28.80
2016,08,25,15,12,28.80
2016,08,25,15,13,28.80
2016,08,25,15,14,28.70
2016,08,25,15,15,28.70
2016,08,25,15,16,28.80
2016,08,25,15,17,28.80
2016,08,25,15,18,28.80
2016,08,25,15,19,28.80
2016,08,25,15,20,28.70
2016,08,25,15,21,28.70
2016,08,25,15,22,28.80
2016,08,25,15,23,28.80
2016,08,25,15,24,28.90
2016,08,25,15,25,28.90
2016,08,25,15,26,29.00
2016,08,25,15,27,29.00
2016,08,25,15,28,29.00
2016,08,25,15,29,29.10
2016,08,25,15,30,29.20
2016,08,25,15,31,29.20
2016,08,25,15,32,29.30
2016,08,25,15,33,29.40
2016,08,25,15,34,29.40
2016,08,25,15,35,29.50
2016,08,25,15,36,29.50
2016,08,25,15,37,29.60
2016,08,25,15,38,29.60
2016,08,25,15,39,29.60
2016,08,25,15,40,29.60
2016,08,25,15,41,29.60
2016,08,25,15,42,29.70
2016,08,25,15,43,29.70
2016,08,25,15,44,29.80
2016,08,25,15,45,29.80
2016,08,25,15,46,29.80
2016,08,25,15,47,29.70
2016,08,25,15,48,29.70
2016,08,25,15,49,29.70
2016,08,25,15,50,29.70
2016,08,25,15,51,29.70
2016,08,25,15,52,29.70
2016,08,25,15,53,29.70
2016,08,25,15,54,29.80
2016,08,25,15,55,29.80
2016,08,25,15,56,29.80
2016,08,25,15,57,29.80
2016,08,25,15,58,29.80
2016,08,25,15,59,29.80
2016,08,25,16,00,29.80
2016,08,25,16,01,29.90
2016,08,25,16,02,29.90
2016,08,25,16,03,30.00
2016,08,25,16,04,30.00
2016,08,25,16,05,30.20
2016,08,25,16,06,30.20
2016,08,25,16,07,30.30
2016,08,25,16,08,30.40
2016,08,25,16,09,30.50
2016,08,25,16,10,30.50
2016,08,25,16,11,30.50
2016,08,25,16,12,30.40
2016,08,25,16,13,30.40
2016,08,25,16,14,30.40
2016,08,25,16,15,30.40
2016,08,25,16,16,30.40
2016,08,25,16,17,30.40
2016,08,25,16,18,30.40
2016,08,25,16,19,30.40
2016,08,25,16,20,30.40
2016,08,25,16,21,30.40
2016,08,25,16,22,30.50
2016,08,25,16,23,30.50
2016,08,25,16,24,30.60
2016,08,25,16,25,30.60
2016,08,25,16,26,30.60
2016,08,25,16,27,30.70
2016,08,25,16,28,30.70
2016,08,25,16,29,30.70
2016,08,25,16,30,30.80
2016,08,25,16,31,30.80
2016,08,25,16,32,30.90
2016,08,25,16,33,31.00
2016,08,25,16,34,31.00
2016,08,25,16,35,31.00
2016,08,25,16,36,31.10
2016,08,25,16,37,31.00
2016,08,25,16,38,31.00
2016,08,25,16,39,31.10
2016,08,25,16,40,31.00
2016,08,25,16,41,31.00
2016,08,25,16,42,30.90
2016,08,25,16,43,30.90
2016,08,25,16,44,30.90
2016,08,25,16,45,30.90
2016,08,25,16,46,30.90
2016,08,25,16,47,30.80
2016,08,25,16,48,30.80
2016,08,25,16,49,30.80
2016,08,25,16,50,30.80
2016,08,25,16,51,30.80
2016,08,25,16,52,30.80
2016,08,25,16,53,30.80
2016,08,25,16,54,30.80
2016,08,25,16,55,30.80
2016,08,25,16,56,30.90
2016,08,25,16,57,30.90
2016,08,25,16,58,30.90
2016,08,25,16,59,30.90
2016,08,25,17,00,30.90
2016,08,25,17,01,30.80
2016,08,25,17,02,30.80
2016,08,25,17,03,30.70
2016,08,25,17,04,30.60
2016,08,25,17,05,30.40
2016,08,25,17,06,30.30
2016,08,25,17,07,30.20
2016,08,25,17,08,30.10
2016,08,25,17,09,30.10
2016,08,25,17,10,30.10
2016,08,25,17,11,30.00
2016,08,25,17,12,30.00
2016,08,25,17,13,30.00
2016,08,25,17,14,30.00
2016,08,25,17,15,30.10
2016,08,25,17,16,30.10
2016,08,25,17,17,30.20
2016,08,25,17,18,30.20
2016,08,25,17,19,30.20
2016,08,25,17,20,30.30
2016,08,25,17,21,30.40
2016,08,25,17,22,30.40
2016,08,25,17,23,30.40
2016,08,25,17,24,30.40
2016,08,25,17,25,30.40
2016,08,25,17,26,30.30
2016,08,25,17,27,30.30
2016,08,25,17,28,30.30
2016,08,25,17,29,30.30
2016,08,25,17,30,30.20
2016,08,25,17,31,30.10
2016,08,25,17,32,30.10
2016,08,25,17,33,30.10
2016,08,25,17,34,30.10
2016,08,25,17,35,30.10
2016,08,25,17,36,30.00
2016,08,25,17,37,30.10
2016,08,25,17,38,30.00
2016,08,25,17,39,30.00
2016,08,25,17,40,30.00
2016,08,25,17,41,29.90
2016,08,25,17,42,29.90
2016,08,25,17,43,29.90
2016,08,25,17,44,29.90
2016,08,25,17,45,29.90
2016,08,25,17,46,29.90
2016,08,25,17,47,29.80
2016,08,25,17,48,29.80
2016,08,25,17,49,29.80
2016,08,25,17,50,29.80
2016,08,25,17,51,29.70
2016,08,25,17,52,29.70
2016,08,25,17,53,29.60
2016,08,25,17,54,29.60
2016,08,25,17,55,29.60
2016,08,25,17,56,29.60
2016,08,25,17,57,29.60
2016,08,25,17,58,29.70
2016,08,25,17,59,29.70
2016,08,25,18,00,29.70
2016,08,25,18,01,29.70
2016,08,25,18,02,29.70
2016,08,25,18,03,29.60
2016,08,25,18,04,29.60
2016,08,25,18,05,29.60
2016,08,25,18,06,29.70
2016,08,25,18,07,29.70
2016,08,25,18,08,29.70
2016,08,25,18,09,29.70
2016,08,25,18,10,29.70
2016,08,25,18,11,29.70
2016,08,25,18,12,29.70
2016,08,25,18,13,29.70
2016,08,25,18,14,29.70
2016,08,25,18,15,29.70
2016,08,25,18,16,29.70
2016,08,25,18,17,29.70
2016,08,25,18,18,29.70
2016,08,25,18,19,29.70
2016,08,25,18,20,29.70
2016,08,25,18,21,29.70
2016,08,25,18,22,29.70
2016,08,25,18,23,29.70
2016,08,25,18,24,29.70
2016,08,25,18,25,29.70
2016,08,25,18,26,29.70
2016,08,25,18,27,29.70
2016,08,25,18,28,29.70
2016,08,25,18,29,29.70
2016,08,25,18,30,29.70
2016,08,25,18,31,29.70
2016,08,25,18,32,29.70
2016,08,25,18,33,29.70
2016,08,25,18,34,29.60
2016,08,25,18,35,29.50
2016,08,25,18,36,29.40
2016,08,25,18,37,29.40
2016,08,25,18,38,29.30
2016,08,25,18,39,29.30
2016,08,25,18,40,29.30
2016,08,25,18,41,29.30
2016,08,25,18,42,29.30
2016,08,25,18,43,29.30
2016,08,25,18,44,29.30
2016,08,25,18,45,29.30
2016,08,25,18,46,29.30
2016,08,25,18,47,29.30
2016,08,25,18,48,29.30
2016,08,25,18,49,29.30
